This demonstration page uses our WeatherBlox Daily Observations layout. Learn more.

Left ArrowRight Arrow

Hourly Observations for May 9, 2021

Temp ( °F °C ) Dew Point ( °F °C ) Humidity (%) Winds ( mph kmh ) Pressure ( in mb ) Visibility ( mi km ) Precip ( " mm )
12:15 am 00:15 Clear 45 7 34 1 66 66 N N/A 30.14 1021 10 16.0934 N/A
12:35 am 00:35 Clear 43 6 36 2 76 76 N N/A 30.14 1021 10 16.0934 N/A
12:55 am 00:55 Clear 41 5 34 1 76 76 N N/A 30.14 1021 10 16.0934 N/A
1:15 am 01:15 Clear 41 5 36 2 81 81 N 3 6 30.13 1020 10 16.0934 N/A
1:35 am 01:35 Clear 41 5 36 2 81 81 NNW 3 6 30.12 1020 10 16.0934 N/A
1:55 am 01:55 Clear 41 5 36 2 81 81 N N/A 30.12 1020 10 16.0934 N/A
2:15 am 02:15 Clear 41 5 36 2 81 81 N N/A 30.12 1020 10 16.0934 N/A
2:35 am 02:35 Clear 41 5 36 2 81 81 N N/A 30.13 1020 10 16.0934 N/A
2:55 am 02:55 Clear 41 5 37 3 87 87 N N/A 30.12 1020 10 16.0934 N/A
3:15 am 03:15 Clear 41 5 37 3 87 87 WNW 3 6 30.13 1020 10 16.0934 N/A
3:35 am 03:35 Partly Cloudy 41 5 37 3 87 87 N N/A 30.13 1020 10 16.0934 N/A
3:55 am 03:55 Mostly Cloudy 41 5 37 3 87 87 N N/A 30.14 1021 10 16.0934 N/A
4:15 am 04:15 Mostly Cloudy 41 5 37 3 87 87 N N/A 30.15 1021 10 16.0934 N/A
4:35 am 04:35 Cloudy 41 5 37 3 87 87 W 3 6 30.16 1021 10 16.0934 N/A
4:55 am 04:55 Cloudy 43 6 37 3 81 81 NNW 5 7 30.16 1021 10 16.0934 N/A
5:15 am 05:15 Cloudy 45 7 36 2 71 71 WSW 9 15 30.14 1021 10 16.0934 N/A
5:35 am 05:35 Cloudy 45 7 37 3 76 76 SW 7 11 30.15 1021 10 16.0934 N/A
5:55 am 05:55 Cloudy 45 7 36 2 71 71 N N/A 30.13 1020 10 16.0934 N/A
6:15 am 06:15 Cloudy 45 7 37 3 76 76 N 6 9 30.13 1020 10 16.0934 N/A
6:35 am 06:35 Cloudy 45 7 37 3 76 76 SSW 7 11 30.15 1021 10 16.0934 N/A
6:55 am 06:55 Cloudy 45 7 37 3 76 76 N N/A 30.14 1021 10 16.0934 N/A
7:15 am 07:15 Cloudy 45 7 37 3 76 76 S 6 9 30.14 1021 10 16.0934 N/A
7:35 am 07:35 Cloudy 45 7 37 3 76 76 S 3 6 30.15 1021 10 16.0934 N/A
7:55 am 07:55 Cloudy 45 7 37 3 76 76 SW 5 7 30.16 1021 10 16.0934 N/A
8:15 am 08:15 Cloudy 45 7 39 4 81 81 SW 3 6 30.17 1022 10 16.0934 N/A
8:35 am 08:35 Cloudy 46 8 39 4 76 76 N N/A 30.16 1021 10 16.0934 N/A
8:55 am 08:55 Cloudy 46 8 39 4 76 76 S 3 6 30.15 1021 10 16.0934 N/A
9:15 am 09:15 Cloudy 46 8 39 4 76 76 S 3 6 30.14 1021 10 16.0934 N/A
9:35 am 09:35 Cloudy 48 9 39 4 71 71 S 5 7 30.15 1021 10 16.0934 N/A
9:55 am 09:55 Cloudy 48 9 39 4 71 71 S 7 11 30.13 1020 10 16.0934 N/A
10:15 am 10:15 Cloudy 50 10 39 4 67 67 S 7 11 30.13 1020 10 16.0934 N/A
10:35 am 10:35 Cloudy 50 10 41 5 71 71 N N/A 30.14 1021 10 16.0934 N/A
10:55 am 10:55 Cloudy 52 11 37 3 58 58 N N/A 30.11 1020 10 16.0934 N/A
11:15 am 11:15 Cloudy 52 11 37 3 58 58 ESE 5 7 30.09 1019 10 16.0934 N/A
11:35 am 11:35 Cloudy 54 12 37 3 54 54 S 14 22 30.08 1019 10 16.0934 N/A
11:55 am 11:55 Cloudy 54 12 39 4 58 58 SSE 7 11 30.07 1018 10 16.0934 N/A
12:15 pm 12:15 Cloudy 54 12 39 4 58 58 S 9 15 30.05 1018 10 16.0934 N/A
12:35 pm 12:35 Cloudy 55 13 37 3 51 51 S 9 15 30.04 1017 10 16.0934 N/A
12:55 pm 12:55 Cloudy 55 13 37 3 51 51 S 10 17 30.02 1017 10 16.0934 N/A
1:15 pm 13:15 Cloudy 57 14 37 3 48 48 S 12 19 30 1016 10 16.0934 N/A
1:35 pm 13:35 Partly Cloudy 61 16 37 3 42 42 S 10 17 29.98 1015 10 16.0934 N/A
1:55 pm 13:55 Sunny 63 17 39 4 42 42 S 16 26 29.97 1015 10 16.0934 N/A
2:15 pm 14:15 Sunny 64 18 39 4 40 40 S 15 24 29.93 1014 10 16.0934 N/A
2:35 pm 14:35 Sunny 64 18 39 4 40 40 S 16 26 29.91 1013 10 16.0934 N/A
2:55 pm 14:55 Sunny 64 18 41 5 43 43 S 15 24 29.89 1012 10 16.0934 N/A
3:15 pm 15:15 Sunny 66 19 41 5 40 40 S 17 28 29.89 1012 10 16.0934 N/A
3:35 pm 15:35 Mostly Cloudy 66 19 43 6 43 43 SSW 17 28 29.88 1012 10 16.0934 N/A
3:55 pm 15:55 Partly Cloudy 66 19 43 6 43 43 S 15 24 29.87 1012 10 16.0934 N/A
6:15 pm 18:15 Sunny 64 18 46 8 52 52 SSE 10 17 29.77 1008 10 16.0934 N/A
6:35 pm 18:35 Sunny 64 18 48 9 56 56 S 9 15 29.76 1008 10 16.0934 N/A
6:55 pm 18:55 Mostly Cloudy 64 18 50 10 60 60 S 9 15 29.76 1008 10 16.0934 N/A
7:15 pm 19:15 Cloudy 64 18 50 10 60 60 SSE 5 7 29.75 1008 10 16.0934 N/A
7:35 pm 19:35 Cloudy 64 18 50 10 60 60 SSE 7 11 29.75 1008 10 16.0934 N/A
7:55 pm 19:55 Cloudy 63 17 50 10 64 64 N N/A 29.77 1008 10 16.0934 N/A
8:15 pm 20:15 Cloudy 63 17 52 11 68 68 N N/A 29.77 1008 10 16.0934 N/A
8:35 pm 20:35 Cloudy 63 17 50 10 64 64 N N/A 29.76 1008 10 16.0934 N/A
8:55 pm 20:55 Cloudy 63 17 52 11 68 68 N N/A 29.76 1008 10 16.0934 N/A
9:15 pm 21:15 Mostly Cloudy 63 17 52 11 68 68 SE 3 6 29.75 1007 10 16.0934 N/A
9:35 pm 21:35 Mostly Cloudy 63 17 52 11 68 68 SE 3 6 29.74 1007 10 16.0934 N/A
9:55 pm 21:55 Cloudy 61 16 52 11 72 72 N N/A 29.74 1007 10 16.0934 N/A
10:15 pm 22:15 Cloudy 61 16 52 11 72 72 N N/A 29.72 1006 10 16.0934 N/A
10:35 pm 22:35 Cloudy 59 15 54 12 82 82 N N/A 29.73 1007 10 16.0934 N/A
10:55 pm 22:55 Cloudy 61 16 52 11 72 72 SSW 3 6 29.72 1006 10 16.0934 N/A
11:15 pm 23:15 Cloudy 59 15 54 12 82 82 N N/A 29.72 1006 10 16.0934 N/A
11:35 pm 23:35 Cloudy 57 14 54 12 88 88 N N/A 29.72 1006 10 16.0934 N/A
11:55 pm 23:55 Cloudy 59 15 54 12 82 82 SW 3 6 29.72 1006 10 16.0934 N/A

Powered by AerisWeather